Regional Weather Roundup
Issued by NWS

Home | Current Version | Previous Version | Graphics & Text | Print | Product List | Glossary On
Versions: 1 2 3 4 5 6 7 8 9 10 11 12 13 14 15 16 17 18 19 20 21 22 23 24 25 26 27 28 29 30 31 32 33 34 35 36 37 38 39 40 41 42 43 44 45 46 47 48 49 50
000
ASUS43 KTOP 312208
RWRKS

WEATHER ROUNDUP FOR KANSAS
NATIONAL WEATHER SERVICE GOODLAND KS
500 PM CDT MON AUG 31 2015

NOTE:  "FAIR" INDICATES FEW OR NO CLOUDS BELOW 12,000 FEET WITH NO
SIGNIFICANT WEATHER AND/OR OBSTRUCTIONS TO VISIBILITY.

KSZ001>006-013>018-027>032-041>047-312300-
NORTHWEST KANSAS

CITY           SKY/WX    TMP DP  RH WIND       PRES   REMARKS
GOODLAND       SUNNY     93  44  18 VRB3      29.92F
HAYS           SUNNY     99  50  19 S18G24    29.87R HX  95
HILL CITY      SUNNY    100  50  18 S10       29.86S HX  97
RUSSELL        SUNNY     98  50  19 S18       29.86S HX  95
$$

KSZ061>065-074>080-084>089-312300-
SOUTHWEST KANSAS

CITY           SKY/WX    TMP DP  RH WIND       PRES   REMARKS
DODGE CITY     SUNNY     95  46  18 S20G28    29.91F
ELKHART          N/A     92  57  30 S17         N/A
GARDEN CITY    SUNNY     95  50  21 S21G26    29.90S
GREAT BEND     SUNNY     97  55  24 S13G21    29.88S HX  95
LIBERAL        SUNNY     95  52  23 S18G29    29.92S
PRATT          SUNNY     95  46  18 MISG      29.91F
$$

KSZ066>073-081>083-090>101-312300-
SOUTHEAST KANSAS

CITY           SKY/WX    TMP DP  RH WIND       PRES   REMARKS
CHANUTE        SUNNY     88  70  55 S16       29.95F
COFFEYVILLE    SUNNY     88  71  57 S15       29.95F
HUTCHINSON     SUNNY     93  62  35 SE14G22   29.91S
MEDICINE LODGE   N/A     96  51  21 S14       29.88S
NEWTON         SUNNY     91  64  40 S14       29.95F
PARSONS        SUNNY     88  70  55 S12G18    29.97S
WICHITA INTL   SUNNY     94  60  32 S10       29.90F
WICHITA JABRA  SUNNY     90  66  45 S10       29.91F
WICHITA MCCONL SUNNY     92  65  41 SE13      29.91F
WINFIELD       SUNNY     93  64  38 SE18G26   29.92S
$$

KSZ007>012-019>026-033>040-048>060-102>105-312300-
NORTHEAST KANSAS

CITY           SKY/WX    TMP DP  RH WIND       PRES   REMARKS
CONCORDIA      SUNNY     91  63  39 S13       29.89F
EMPORIA        SUNNY     89  68  49 S16       29.93S
LAWRENCE       MOSUNNY   90  69  50 S15       29.93F
MANHATTAN      SUNNY     94  61  33 S12       29.89S
MARYSVILLE     SUNNY    N/A N/A N/A S9        29.90F
OLATHE IND     SUNNY     87  71  58 S12       29.96F
OLATHE EXE     SUNNY     86  71  60 S9        29.95F
SALINA         SUNNY     94  58  29 S18       29.89R
TOPEKA BILLARD SUNNY     90  68  48 S12       29.92S
TOPEKA FORBES  SUNNY     90  70  51 S12       29.93S HX  95
$$


USA.gov is the U.S. government's official web portal to all federal, state and local government web resources and services.